TimePDT,TemperatureF,Dew PointF,Humidity,Sea Level PressureIn,VisibilityMPH,Wind Direction,Wind SpeedMPH,Gust SpeedMPH,PrecipitationIn,Events,Conditions,WindDirDegrees,DateUTC
12:53 AM,39.9,34.0,79,30.11,10.0,SSE,5.8,-,N/A,,Mostly Cloudy,160,2012-11-03 07:53:00
1:53 AM,39.9,34.0,79,30.10,10.0,Variable,3.5,-,N/A,,Mostly Cloudy,0,2012-11-03 08:53:00
2:53 AM,39.0,34.0,82,30.11,10.0,West,4.6,-,N/A,,Overcast,260,2012-11-03 09:53:00
3:53 AM,42.1,36.0,79,30.10,10.0,South,3.5,-,N/A,,Overcast,180,2012-11-03 10:53:00
4:53 AM,42.1,35.1,76,30.12,10.0,SW,4.6,-,N/A,,Overcast,220,2012-11-03 11:53:00
5:53 AM,43.0,36.0,76,30.14,10.0,West,4.6,-,N/A,,Overcast,260,2012-11-03 12:53:00
6:53 AM,42.1,36.0,79,30.16,10.0,NW,3.5,-,N/A,,Overcast,310,2012-11-03 13:53:00
7:53 AM,39.9,35.1,83,30.17,10.0,Calm,Calm,-,N/A,,Overcast,0,2012-11-03 14:53:00
8:53 AM,44.1,37.0,76,30.19,10.0,Calm,Calm,-,N/A,,Scattered Clouds,0,2012-11-03 15:53:00
9:53 AM,48.9,37.0,64,30.18,10.0,Calm,Calm,-,N/A,,Mostly Cloudy,0,2012-11-03 16:53:00
10:53 AM,51.1,37.0,59,30.19,10.0,Calm,Calm,-,N/A,,Overcast,0,2012-11-03 17:53:00
11:53 AM,53.1,37.0,55,30.19,10.0,Calm,Calm,-,N/A,,Overcast,0,2012-11-03 18:53:00
12:53 PM,55.9,37.9,51,30.18,10.0,East,5.8,-,N/A,,Mostly Cloudy,90,2012-11-03 19:53:00
1:53 PM,57.9,37.9,47,30.16,10.0,NE,11.5,16.1,N/A,,Clear,40,2012-11-03 20:53:00
2:53 PM,57.9,37.9,47,30.16,10.0,East,9.2,-,N/A,,Clear,80,2012-11-03 21:53:00
3:53 PM,57.0,37.9,49,30.17,10.0,Calm,Calm,-,N/A,,Clear,0,2012-11-03 22:53:00
4:53 PM,54.0,37.0,53,30.19,10.0,NE,11.5,-,N/A,,Partly Cloudy,50,2012-11-03 23:53:00
5:53 PM,48.9,36.0,61,30.22,10.0,East,6.9,-,N/A,,Partly Cloudy,100,2012-11-04 00:53:00
6:53 PM,46.0,36.0,68,30.23,10.0,SE,6.9,-,N/A,,Clear,130,2012-11-04 01:53:00
7:53 PM,44.1,37.0,76,30.25,10.0,SSE,4.6,-,N/A,,Clear,160,2012-11-04 02:53:00
8:53 PM,42.1,36.0,79,30.26,10.0,Calm,Calm,-,N/A,,Clear,0,2012-11-04 03:53:00
9:53 PM,39.0,35.1,86,30.27,10.0,Calm,Calm,-,N/A,,Clear,0,2012-11-04 04:53:00
10:53 PM,37.0,34.0,89,30.29,10.0,Calm,Calm,-,N/A,,Clear,0,2012-11-04 05:53:00
11:53 PM,37.9,35.1,89,30.28,10.0,Calm,Calm,-,N/A,,Clear,0,2012-11-04 06:53:00